CU-0015 weather

CLOSED McCalla Field
Guantanamo Bay Naval Station, Guantánamo, Cuba

Public forecast

Using degrees Celsius for public forecast. Weather courtesy of forecast.io.

Closest aviation weather report (METAR) to McCalla Field

Closest report is Leeward Point Field, 2.4 nm (4.5 km) W. Retrieved 2019/10/15 06:56 UTC (28 minutes ago):

MUGM 150656Z 35007KT 9999 FEW040 FEW280 26/24 A2996 RMK SLP144 T02560239

Closest aviation forecast (TAF) to McCalla Field

Forecast is more than 12 hours old.

Closest forecast is Leeward Point Field, 2.4 nm (4.5 km) W. Retrieved 2016/08/22 23:15 UTC (3 years ago):

TAF TAF COR MUGM 222300Z 2223/2323 09007KT 9999 FEW030 SCT120 QNH2994INS BECMG 2301/2303 36006KT 9999 FEW030 SCT280 QNH2995INS BECMG 2315/2317 13014KT 9999 FEW030 SCT280 QNH2999INS FM232100 09011KT 9999 FEW035 SCT120 BKN280 QNH2992INS TN26/2311Z TX35/2318Z COR 2309 FN20026